Theta_e
307 307 307 307 307 307 307 306 306 306 306 305 305 304 304 306 308 309 308 303 309 310 312 309 308 308 309 311 314 320 329 332 330 328 327 325 325 325 325 325 324 322 322 323 340
308 309 309 309 309 308 307 305 304 305 305 305 303 303 304 309 313 310 309 303 309 310 307 308 307 311 307 310 313 316 321 328 328 327 327 326 325 324 325 324 324 324 324 324 335
309 309 310 311 310 310 308 307 305 304 304 303 303 304 304 312 312 313 312 310 311 308 307 307 310 311 308 309 311 313 319 322 323 322 323 323 323 322 323 323 323 323 323 323 323
310 310 310 310 309 310 309 308 306 303 301 302 304 305 307 314 316 314 310 309 309 309 307 310 310 310 308 309 310 311 312 316 317 318 319 319 320 320 321 321 322 322 322 322 322
305 306 306 305 307 309 309 307 305 302 301 302 305 306 311 316 317 311 311 310 310 310 311 312 311 309 309 308 309 310 310 311 312 312 313 317 319 320 320 320 321 321 322 322 322
308 307 306 306 308 309 309 308 304 300 301 304 306 308 314 313 312 312 312 311 312 314 313 312 309 307 308 309 309 308 309 309 309 310 310 313 314 314 316 316 316 316 318 322 322
307 307 307 309 308 309 308 306 303 301 301 304 306 312 312 305 312 312 311 311 312 312 312 311 310 309 308 309 308 309 308 307 308 309 311 314 314 315 316 316 316 317 318 320 322
307 306 306 308 309 309 306 304 301 301 303 304 308 313 309 311 314 310 309 310 309 310 312 311 309 309 309 308 307 308 305 306 307 309 309 312 314 315 313 314 315 315 316 317 319
307 306 306 307 307 307 303 302 304 306 308 308 312 311 316 315 311 310 309 309 309 309 310 309 309 308 308 307 306 306 307 308 308 308 309 311 310 310 310 311 311 311 312 314 314
307 306 306 307 305 303 302 308 313 312 313 313 313 314 312 314 312 310 310 309 308 308 307 308 304 307 303 305 309 310 309 309 310 310 309 309 310 310 310 311 311 310 311 311 312
305 305 306 307 304 303 304 311 304 306 314 311 316 313 316 314 311 309 309 309 309 306 306 306 306 308 307 306 308 309 310 309 309 310 309 308 310 310 309 309 308 309 310 310 311
303 303 306 306 304 307 306 309 311 308 308 308 309 313 313 313 310 308 310 308 308 307 306 305 306 307 307 307 308 308 308 310 309 311 311 310 310 310 309 309 309 308 309 309 310
300 302 306 306 305 307 308 310 311 309 307 308 310 310 310 309 310 309 309 308 308 306 306 306 307 308 308 310 312 311 312 313 312 312 310 309 310 309 309 309 309 309 308 308 308
303 304 306 305 308 309 310 311 310 308 311 316 311 311 309 308 309 310 310 308 307 306 306 306 307 308 308 311 312 311 312 313 312 311 311 310 311 309 309 309 309 308 308 307 307
303 305 306 306 310 309 311 311 310 310 315 316 309 309 307 308 309 311 309 307 307 307 306 306 307 307 307 311 312 310 312 311 311 310 309 310 309 308 308 308 308 307 310 313 312
304 306 307 307 307 311 311 312 311 314 317 311 309 309 309 309 309 310 308 308 307 306 306 306 306 308 310 312 311 311 310 307 307 308 310 309 309 308 307 308 308 312 314 313 312
307 310 309 305 308 310 312 308 313 315 310 309 308 308 308 310 310 309 309 308 306 308 308 307 307 311 311 311 308 307 306 308 308 307 310 308 310 310 309 310 313 313 313 312 311
309 312 309 307 311 313 310 310 316 313 309 308 308 308 312 311 311 311 310 309 311 307 305 306 307 310 313 310 309 309 307 308 311 311 308 308 310 310 312 313 313 314 312 312 311
312 313 314 314 313 312 306 312 315 312 310 308 308 310 311 311 311 311 310 312 312 310 311 310 311 310 310 309 308 309 310 307 309 309 309 309 310 311 311 313 313 312 311 310 309
311 312 314 314 314 309 308 314 314 311 310 309 308 310 311 312 312 312 312 312 313 311 308 310 312 310 311 310 309 307 307 308 307 313 314 310 312 312 310 310 313 312 310 309 309
310 310 313 311 311 308 311 313 314 311 310 310 309 310 310 313 311 312 312 311 311 312 311 311 310 311 311 310 308 308 310 311 308 310 309 310 311 310 312 313 313 311 310 309 308
304 310 312 310 307 304 310 311 311 310 311 310 309 309 310 311 311 311 312 312 310 312 313 312 310 313 312 309 309 309 309 310 305 306 314 312 312 310 309 308 310 310 311 310 309
304 305 311 310 304 304 304 309 309 311 312 311 309 309 308 309 311 312 313 312 308 309 312 310 309 313 310 307 306 311 313 311 310 309 313 314 311 309 309 310 309 310 311 310 310
304 306 302 302 302 306 307 308 311 310 310 309 310 308 308 310 309 310 311 310 308 309 312 313 309 312 313 310 307 311 312 312 314 316 314 313 311 310 310 310 311 312 311 310 310
298 302 301 300 302 304 305 308 308 310 308 307 307 308 308 308 308 308 308 308 307 308 309 309 311 311 312 312 313 314 314 314 315 315 318 314 312 311 310 311 311 312 312 313 317
302 302 299 300 302 303 303 305 307 308 307 308 307 306 305 305 306 307 306 306 307 307 309 307 309 313 313 311 311 312 313 313 312 312 314 314 314 312 312 311 311 310 311 312 317
301 300 300 300 302 303 302 304 305 305 305 307 305 305 306 306 306 306 306 306 305 307 306 307 307 309 312 312 313 314 313 314 315 314 314 315 313 312 313 311 310 310 310 311 313
Wind_Speed
20 20 20 19 19 19 18 17 16 15 14 15 16 17 19 20 23 16 7 9 2 6 7 8 10 8 3 2 3 2 3 6 6 8 1 7 7 3 3 7 6 6 6 12 11
21 21 21 21 21 20 19 18 17 15 14 15 16 18 18 18 15 11 8 9 9 5 3 2 3 1 1 4 3 4 5 8 5 5 8 16 5 11 7 12 12 6 9 19 9
22 22 22 22 22 21 20 18 17 16 14 14 17 17 14 13 4 6 2 6 6 7 7 3 4 2 3 3 4 3 8 4 4 2 3 12 14 9 10 19 6 11 11 9 4
23 23 23 23 23 22 21 19 17 16 14 14 15 13 10 0 2 4 0 3 4 5 5 2 2 2 3 5 5 4 5 3 3 4 6 15 16 16 18 24 14 9 8 6 7
23 23 24 25 24 24 22 20 18 15 12 13 11 9 3 2 7 2 4 5 6 5 5 3 2 1 2 2 3 4 4 5 6 5 7 11 16 16 26 24 14 13 8 9 8
26 27 27 27 27 26 24 21 19 13 10 9 7 4 1 3 4 6 7 8 9 9 4 6 5 7 2 2 1 2 2 5 4 5 4 7 11 5 27 6 13 14 10 9 10
27 28 30 29 28 27 25 22 17 10 7 5 3 0 1 11 2 2 9 13 13 14 4 7 4 1 4 4 1 3 6 5 5 5 7 6 13 22 21 9 11 8 10 7 11
29 30 32 30 29 27 25 19 12 8 6 4 1 2 6 4 10 9 8 11 6 10 19 14 4 2 2 1 6 2 4 2 5 2 6 10 23 2 6 7 12 12 7 11 6
30 31 33 32 30 27 22 17 12 7 4 5 3 3 8 9 4 7 7 3 8 5 9 6 3 2 3 3 5 5 1 2 6 4 4 7 3 7 8 8 10 10 10 7 13
31 32 33 32 27 23 18 8 8 9 9 5 1 3 6 1 5 7 4 8 3 3 6 4 4 2 3 3 2 3 1 3 4 5 6 12 9 5 7 6 8 8 10 11 13
32 31 32 30 23 15 16 3 5 3 3 5 4 4 6 9 9 5 3 1 2 6 2 2 3 3 10 8 6 4 2 2 4 5 5 7 15 9 7 6 8 9 8 10 11
31 32 30 26 16 8 6 3 1 6 7 8 8 8 17 5 4 9 3 4 1 2 2 5 1 4 4 4 4 4 1 1 4 5 7 10 22 10 3 5 5 8 8 8 10
33 32 27 20 5 6 5 7 17 7 2 7 4 4 6 10 6 6 4 3 2 1 1 3 6 4 3 3 2 1 3 2 3 6 5 7 18 12 3 3 6 7 7 8 8
36 28 24 18 2 7 2 17 11 2 3 4 2 4 3 3 4 8 8 5 1 4 2 4 3 1 3 2 1 2 1 1 5 6 3 5 12 5 8 10 4 8 8 10 11
35 25 18 4 4 1 9 18 9 2 4 2 0 2 2 4 2 3 6 3 6 6 4 6 2 2 4 1 2 4 2 3 3 4 2 2 4 3 14 13 16 11 6 5 8
34 18 10 1 3 7 17 15 3 4 2 2 3 3 2 3 5 3 2 3 2 4 2 8 2 4 4 1 1 3 2 5 4 2 1 7 5 4 2 2 8 5 8 8 8
23 6 3 3 1 12 16 3 4 4 7 5 4 6 2 4 6 3 6 0 1 1 3 3 2 1 3 3 5 5 5 4 4 2 5 3 5 11 16 16 5 9 9 10 10
11 7 3 2 6 11 6 5 6 3 2 3 3 7 3 7 4 7 3 3 6 3 2 3 5 2 1 4 5 4 6 5 5 3 13 6 7 7 6 7 8 8 10 10 13
8 5 4 4 8 9 5 5 3 4 4 4 7 2 2 4 3 6 5 2 3 3 4 2 4 3 3 2 5 2 4 5 4 1 1 5 8 10 18 9 10 8 9 11 12
8 9 4 6 8 5 5 2 2 3 6 3 2 3 2 3 3 4 5 3 3 2 3 3 3 5 3 1 3 5 4 1 2 3 4 5 5 9 12 13 9 11 10 12 13
5 3 5 6 6 5 3 4 3 6 4 3 2 4 3 1 2 2 6 4 2 2 2 4 4 4 3 4 6 2 1 3 2 3 4 3 7 6 8 10 12 14 14 11 13
5 2 11 9 4 1 1 3 4 5 4 4 3 4 4 3 3 5 8 3 6 2 2 4 4 3 9 9 6 5 5 5 4 5 5 3 14 5 15 11 10 15 18 13 13
3 3 5 4 2 3 6 5 3 3 2 3 3 3 5 3 2 4 4 3 4 0 2 4 1 3 6 3 5 1 4 4 3 1 12 7 13 2 9 17 16 16 16 16 9
2 4 4 4 1 2 4 5 5 5 1 1 3 2 4 2 3 4 5 4 9 3 11 7 4 6 6 6 3 9 15 14 12 4 9 15 24 19 19 16 12 14 14 10 9
3 1 1 4 2 2 3 3 4 5 5 4 2 0 3 3 3 8 6 6 10 8 4 4 7 7 10 14 13 17 20 19 17 20 13 17 18 21 16 8 7 8 14 16 11
2 3 4 4 4 5 2 1 3 3 3 4 3 8 7 6 8 11 9 3 6 4 2 1 4 3 8 14 17 20 21 18 21 19 17 16 17 12 4 5 10 12 14 16 10
6 3 3 3 4 2 3 1 4 7 6 1 3 3 5 6 7 13 13 12 9 6 4 4 2 2 8 1 7 12 11 9 5 5 3 8 16 5 10 12 14 14 16 16 11
Wind_Direction
346 343 341 338 335 333 330 328 327 326 325 323 324 326 326 321 317 314 241 235 175 216 247 291 286 263 229 218 245 122 179 210 227 251 274 317 3 187 293 294 333 311 18 308 124
344 341 339 335 333 331 330 329 326 324 324 323 324 322 322 325 318 269 279 211 212 229 250 273 289 310 228 196 216 179 197 215 204 235 318 296 286 309 326 321 300 318 328 4 75
342 340 338 335 333 331 328 325 324 321 319 321 325 322 321 328 315 262 308 178 194 227 248 273 280 279 202 193 213 209 237 193 258 0 332 295 296 310 307 291 272 304 309 336 351
342 339 336 335 332 329 325 321 318 317 319 323 329 328 335 0 116 281 195 170 185 226 217 190 212 204 209 211 217 249 221 171 282 278 271 272 298 289 291 269 287 287 277 293 297
346 343 339 336 331 326 322 316 312 312 319 326 332 337 4 290 252 209 204 187 200 188 232 176 182 176 227 241 304 231 286 291 285 282 266 272 272 274 274 278 286 277 272 264 266
348 346 341 334 327 324 320 313 308 308 314 324 333 339 348 297 261 276 227 210 219 211 221 187 201 208 180 285 183 311 267 274 274 260 240 260 271 252 266 305 285 281 277 235 251
348 349 345 336 329 325 320 315 309 303 302 315 328 8 288 238 316 17 264 246 250 229 234 212 214 93 152 303 240 298 335 343 217 219 227 221 261 240 268 307 289 276 295 253 246
347 347 346 337 331 326 322 322 319 294 284 266 201 184 250 282 314 280 258 259 286 231 227 264 246 165 163 267 7 349 48 28 283 274 254 179 249 281 359 338 310 318 302 300 271
342 344 343 338 335 330 330 329 312 288 219 181 158 180 272 313 260 236 226 261 312 264 233 283 121 157 35 67 2 7 179 219 308 276 273 190 321 346 333 347 315 319 331 344 330
341 342 340 339 339 339 339 359 50 102 111 119 240 327 278 313 260 260 267 231 234 340 355 52 56 161 53 84 233 268 295 272 254 298 334 304 295 298 298 310 299 311 317 320 317
339 339 338 339 340 348 352 53 20 8 190 215 197 253 285 324 335 249 231 324 66 58 11 347 75 222 241 209 230 268 256 235 266 335 349 282 299 315 277 294 291 300 302 308 305
343 339 337 338 340 359 26 56 241 267 306 247 239 239 260 275 307 288 200 153 155 263 350 13 225 217 235 209 206 228 192 324 275 329 333 310 297 299 262 253 271 290 301 292 302
341 339 336 338 349 22 2 6 342 306 12 301 213 205 221 160 224 252 144 174 211 264 169 169 245 295 9 48 68 97 124 322 277 313 288 314 292 297 231 280 283 280 288 301 278
342 341 338 339 106 353 322 342 350 242 61 277 254 271 158 166 254 218 189 155 210 216 236 234 266 54 15 173 132 337 118 356 328 11 311 56 291 252 272 289 279 271 267 279 309
342 341 334 334 328 331 322 339 338 121 55 174 111 278 90 175 289 259 167 93 206 211 108 259 267 342 332 216 157 239 349 327 299 294 9 254 284 110 324 289 278 296 352 311 301
342 340 333 132 285 337 336 331 108 51 30 19 27 355 329 243 243 269 182 88 167 178 230 246 191 166 206 211 305 60 34 16 30 46 314 230 207 326 230 317 318 291 292 297 293
348 4 334 178 305 336 337 38 43 79 316 15 332 324 15 310 342 215 193 107 239 168 280 316 351 71 102 27 7 65 51 346 339 359 241 275 272 264 299 299 297 282 289 285 280
5 19 16 308 347 336 355 56 68 331 5 315 299 308 128 17 1 335 99 139 24 73 98 141 321 118 119 196 211 228 156 162 254 240 283 277 253 255 236 232 256 253 265 275 286
358 6 357 357 325 334 68 59 149 328 343 303 313 281 328 36 349 11 8 16 64 35 145 156 259 282 213 169 129 199 176 208 233 108 345 228 268 291 265 237 264 262 251 266 280
354 339 341 335 316 10 72 207 259 317 315 249 238 338 304 351 330 57 333 330 165 194 155 167 290 255 266 123 265 161 190 1 9 284 252 262 259 252 275 278 282 288 289 291 293
9 25 3 341 317 41 108 242 282 306 5 320 255 267 263 201 311 304 224 251 83 182 113 172 158 278 359 227 201 307 242 91 131 169 224 288 261 221 255 273 277 284 281 276 287
358 28 346 347 39 32 308 287 289 304 327 273 203 212 222 238 248 247 243 204 358 140 254 186 145 230 233 269 239 185 227 158 133 260 224 226 270 229 259 285 296 281 284 284 279
354 276 2 6 84 328 313 296 269 294 306 358 320 33 13 250 269 252 245 222 67 46 183 183 180 310 321 7 5 188 200 206 209 263 245 252 268 286 309 305 297 292 288 276 303
34 348 328 36 47 84 342 275 318 308 245 324 273 61 19 280 220 283 299 291 349 312 311 170 166 190 233 240 193 285 271 265 252 236 261 230 271 274 285 290 309 315 290 287 289
29 329 207 305 334 344 255 271 303 355 328 321 304 132 228 271 272 259 251 296 292 272 280 147 204 211 241 261 275 268 270 271 258 258 250 273 260 280 283 297 320 331 342 338 351
50 22 356 297 309 327 336 48 300 335 282 275 340 310 287 222 227 291 299 241 236 294 219 191 253 219 267 269 260 269 267 259 267 262 255 269 275 270 307 292 330 332 323 311 312
10 18 97 288 318 333 248 32 304 312 279 247 312 296 283 263 292 279 257 250 235 190 174 174 185 55 280 321 300 280 257 210 248 213 252 281 275 308 327 329 318 309 301 294 329